sat.trackr.live / text

‹ back to catalog

STARLINK-5731

NORAD 56924 · 2023-083BA

PAYLOAD ACTIVE UNKNOWN

§ Identity

Operator
Country
US
Launch date
2023-06-12
Launch site
AFETR
Launch vehicle
Mass (kg)
RCS (m²)

Purposes: comms

External: N2YO · Heavens-Above · Gunter

§ Orbital elements

Epoch: 2026-09-20T03:17:17.836800Z

Period
94.27 min
Inclination
43.0050°
Eccentricity
0.0001738
Mean motion
15.27574146 rev/d
Perigee alt
481.9 km
Apogee alt
484.3 km
Semi-major
6,861.2 km
B*
5.4651e-6
RAAN
52.7712°
Arg perigee
277.9272°
Mean anomaly
82.1382°
Rev number
18,164

§ Raw data

STARLINK-57311 56924U 23083BA  26263.13701200 -.00000112  00000+0  54651-5 0  99952 56924  43.0050  52.7712 0001738 277.9272  82.1382 15.27574146181645

JSON: /api/v1/satellites/56924 · /tle

For live sub-satellite position, see the globe view (requires WebGL).

§ Visibility from observer

Set your observer location to see the next 7 days of passes ≥ 10°. The values pass through the URL so the page stays shareable.

No JS? Fill the form by hand. The geolocation button needs JavaScript.